Flag for Canada Weather past 2 weeks in Langley, British Columbia, Canada

Now
46 °F

Cool.


Feels Like: 46 °F
Forecast: 42 / 62 °F
Wind: 1 mph from Northeast

Location: P. Meadows Coastal Station

Current Time: May 5, 2015 at 11:31:22 PM

Latest Report: May 5, 2015 at 10:00 PM


Visibility: N/A

Pressure: 30.09 "Hg

Humidity: 93%

Dew point: 44 °F

Location of LangleyLocation

Historic Weather in Langley — Graph

°F

Langley temperature yesterday

Maximum temperature yesterday: 64 °F (at 4:00 PM)
Minimum temperature yesterday: 41 °F (at 3:00 AM)
Average temperature yesterday: 52 °F

Past Weeks' High & Low Weather Summary

 TemperatureHumidityPressure
High67 °F (May 3, 4:00 PM)100% (Apr 27, 6:00 AM)30.30 "Hg (Apr 27, 6:00 AM)
Low36 °F (Apr 26, 6:00 AM)33% (May 3, 7:00 PM)29.72 "Hg (Apr 24, 5:00 AM)
Average51 °F77%30.03 "Hg
* Reported Apr 20 10:00 PM — May 5 10:00 PM, Langley, Weather by CustomWeather, © 2015

Note: Actual official high and low records may vary slightly from our data, if they occured in-between our weather recording intervals... More about our weather records

Advertising

Langley weather history for previous 24 hours

 ConditionsComfort  
Time TempWeatherWind HumidityBarometerVisibility
10:00 PM
Tue, May 5
46 °FCool.1 mph93%30.09 "HgN/A
9:00 PM48 °FCool.2 mph90%30.08 "HgN/A
8:00 PM49 °FCool.5 mph83%30.07 "HgN/A
7:00 PM53 °FCool.1 mph70%30.06 "HgN/A
6:00 PM52 °FCool.No wind70%30.05 "HgN/A
5:00 PM51 °FCool.2 mph79%30.05 "HgN/A
4:00 PM51 °FCool.6 mph86%30.06 "HgN/A
3:00 PM51 °FCool.6 mph80%30.06 "HgN/A
2:00 PM51 °FCool.9 mph82%30.05 "HgN/A
1:00 PM47 °FCool.10 mph94%30.04 "HgN/A
12:00 PM48 °FCool.6 mph90%30.04 "HgN/A
11:00 AM45 °FQuite cool.2 mph95%30.03 "HgN/A
10:00 AM45 °FQuite cool.8 mph95%30.01 "HgN/A
9:00 AM45 °FQuite cool.6 mph95%30.00 "HgN/A
8:00 AM46 °FCool.2 mph94%29.98 "HgN/A
7:00 AM46 °FCool.3 mph92%29.96 "HgN/A
6:00 AM46 °FCool.5 mph85%29.95 "HgN/A
5:00 AM46 °FCool.5 mph93%29.94 "HgN/A
4:00 AM47 °FCool.5 mph91%29.95 "HgN/A
3:00 AM47 °FCool.3 mph93%29.95 "HgN/A
2:00 AM47 °FCool.3 mph92%29.95 "HgN/A
1:00 AM49 °FCool.3 mph90%29.95 "HgN/A
12:00 AM48 °FCool.5 mph89%29.94 "HgN/A
Weather by CustomWeather, © 2015

See weather overviewHow to use our weather pages